AJ5TT Weather Reports


time (UTC)temp
C
wind
direction
speed
KPH
gust
KPH
rain 1hr
cm
rain 24hr
cm
rain mn
cm
humidity
%
barometer
mb
20260903124601 26 234 0.0 6.4 0.00 0.00 0.00 86 1015.3
20260903123108 27 0 1.6 3.2 0.00 0.00 0.00 89 1015.1
20260903121603 27 196 0.0 3.2 0.00 0.00 0.00 89 1014.6
20260903120127 27 209 0.0 3.2 0.00 0.00 0.00 89 1014.6
20260903114608 27 235 0.0 1.6 0.00 0.00 0.00 89 1014.5
20260903113109 27 0 0.0 0.0 0.00 0.00 0.00 89 1014.5
20260903111603 27 0 0.0 0.0 0.00 0.00 0.00 89 1014.5
20260903110101 27 0 0.0 0.0 0.00 0.00 0.00 89 1014.3
20260903104614 27 0 0.0 0.0 0.00 0.00 0.00 88 1014.3
20260903103105 27 0 0.0 0.0 0.00 0.00 0.00 88 1014.3
20260903101602 27 0 0.0 0.0 0.00 0.00 0.00 88 1014.2
20260903100056 27 0 0.0 0.0 0.00 0.00 0.00 87 1014.1
20260903094605 27 0 0.0 0.0 0.00 0.00 0.00 87 1014.0
20260903093104 27 0 0.0 0.0 0.00 0.00 0.00 87 1014.1
20260903091605 27 0 0.0 3.2 0.00 0.00 0.00 86 1014.2
20260903090056 27 0 0.0 3.2 0.00 0.00 0.00 86 1014.2
20260903084604 27 0 0.0 0.0 0.00 0.00 0.00 86 1014.2
20260903083100 27 0 0.0 1.6 0.00 0.00 0.00 86 1014.2
20260903081607 27 0 1.6 4.8 0.00 0.00 0.00 86 1014.0
20260903080104 27 199 1.6 6.4 0.00 0.00 0.00 86 1014.0
20260903074637 27 180 1.6 4.8 0.00 0.00 0.00 86 1013.9
20260903073116 27 0 0.0 4.8 0.00 0.00 0.00 86 1014.0
20260903071606 27 171 0.0 4.8 0.00 0.00 0.00 86 1014.2
20260903070115 28 0 1.6 4.8 0.00 0.00 0.00 86 1014.2
20260903064557 28 202 0.0 3.2 0.00 0.00 0.00 86 1014.5
20260903063110 28 161 0.0 3.2 0.00 0.00 0.00 86 1014.6
20260903061611 28 0 0.0 3.2 0.00 0.00 0.00 86 1014.7
20260903054605 28 155 1.6 6.4 0.00 0.00 0.00 84 1014.9
20260903053107 28 0 1.6 3.2 0.00 0.00 0.00 83 1015.0
20260903051558 28 196 0.0 3.2 0.00 0.00 0.00 83 1015.0
20260903050056 28 0 0.0 3.2 0.00 0.00 0.00 83 1015.2
20260903044603 28 167 0.0 4.8 0.00 0.00 0.00 83 1015.2
20260903043103 28 0 0.0 1.6 0.00 0.00 0.00 82 1015.2
20260903041611 28 168 0.0 4.8 0.00 0.00 0.00 83 1015.1
20260903040107 28 98 0.0 6.4 0.00 0.00 0.00 83 1015.2
20260903034605 28 200 1.6 8.0 0.00 0.00 0.00 82 1015.0
20260903033101 28 182 0.0 3.2 0.00 0.00 0.00 83 1015.2
20260903031611 28 0 0.0 3.2 0.00 0.00 0.00 83 1015.0
20260903030105 28 0 0.0 11.3 0.00 0.00 0.00 83 1014.7
20260903024602 28 82 1.6 6.4 0.00 0.00 0.00 84 1014.5
20260903023106 28 221 0.0 6.4 0.00 0.00 0.00 84 1014.5
20260903021608 28 157 1.6 8.0 0.00 0.00 0.00 84 1014.2
20260903020104 28 194 0.0 6.4 0.00 0.00 0.00 84 1014.0
20260903014625 28 221 0.0 6.4 0.00 0.00 0.00 84 1013.9
20260903013105 28 214 1.6 8.0 0.00 0.00 0.00 83 1013.9
20260903011619 29 209 3.2 8.0 0.00 0.00 0.00 83 1013.7
20260903010112 29 175 3.2 8.0 0.00 0.00 0.00 81 1013.6
20260903004607 29 197 3.2 9.7 0.00 0.00 0.00 80 1013.8
20260903003108 30 0 1.6 12.9 0.00 0.00 0.00 79 1013.8
20260903001606 30 188 6.4 14.5 0.00 0.00 0.00 77 1013.1
20260903000108 30 252 4.8 12.9 0.00 0.00 0.00 76 1013.1
20260902234610 31 149 4.8 12.9 0.00 0.00 0.00 74 1013.2
20260902233105 31 151 4.8 14.5 0.00 0.00 0.00 71 1013.2
20260902231609 31 225 4.8 17.7 0.00 0.00 0.00 70 1013.1
20260902230105 32 157 4.8 16.1 0.00 0.00 0.00 69 1013.1
20260902224623 32 119 6.4 16.1 0.00 0.00 0.00 66 1013.0
20260902223059 33 223 9.7 20.9 0.00 0.00 0.00 63 1013.0
20260902221606 33 167 4.8 20.9 0.00 0.00 0.00 61 1013.0
20260902220116 33 210 8.0 17.7 0.00 0.00 0.00 60 1013.0
20260902214601 33 236 8.0 12.9 0.00 0.03 0.00 58 1013.0
20260902213059 34 196 3.2 11.3 0.00 0.03 0.00 57 1013.0
20260902211605 34 229 4.8 9.7 0.00 0.03 0.00 57 1013.2
20260902210107 35 178 4.8 11.3 0.00 0.03 0.00 56 1013.2
20260902204603 35 232 4.8 14.5 0.00 0.03 0.00 57 1013.3
20260902203103 35 176 6.4 14.5 0.00 0.03 0.00 58 1013.4
20260902201605 35 46 3.2 12.9 0.00 0.03 0.00 60 1013.6
20260902194603 34 219 4.8 11.3 0.00 0.03 0.00 61 1014.0
20260902193058 33 242 6.4 12.9 0.00 0.03 0.00 64 1014.2
20260902191554 33 234 4.8 17.7 0.00 0.03 0.00 64 1014.3
20260902190112 33 223 6.4 16.1 0.00 0.03 0.00 64 1014.5
20260902184602 33 259 6.4 12.9 0.00 0.03 0.00 66 1014.5
20260902183101 32 211 6.4 16.1 0.00 0.03 0.00 67 1014.7
20260902181557 32 224 6.4 12.9 0.00 0.03 0.00 67 1014.9
20260902180059 32 203 4.8 12.9 0.00 0.03 0.00 70 1015.2
20260902174605 31 222 4.8 12.9 0.00 0.03 0.00 68 1015.7
20260902173103 32 208 8.0 19.3 0.00 0.03 0.00 70 1015.8
20260902171609 31 219 8.0 16.1 0.00 0.03 0.00 72 1015.9
20260902170106 31 242 4.8 17.7 0.00 0.03 0.00 74 1016.2
20260902164609 30 213 4.8 14.5 0.00 0.03 0.00 78 1016.4
20260902163108 30 222 6.4 17.7 0.00 0.03 0.00 78 1016.3
20260902161609 30 226 9.7 19.3 0.00 0.03 0.00 78 1016.4
20260902160117 30 250 8.0 19.3 0.00 0.03 0.00 81 1016.4
20260902154605 29 249 8.0 17.7 0.00 0.03 0.00 83 1016.4
20260902153101 29 232 3.2 14.5 0.00 0.03 0.00 84 1016.4
20260902151614 28 246 4.8 14.5 0.00 0.03 0.00 85 1016.2
20260902150104 28 242 4.8 8.0 0.00 0.03 0.00 85 1016.2
20260902144559 28 252 3.2 6.4 0.00 0.03 0.00 85 1016.2
20260902143058 27 233 1.6 4.8 0.00 0.03 0.00 85 1015.9
20260902141601 27 232 1.6 3.2 0.00 0.03 0.00 85 1016.0
20260902134610 26 0 0.0 0.0 0.00 0.03 0.00 86 1016.0
20260902133107 26 0 0.0 3.2 0.00 0.03 0.00 85 1015.8
20260902131607 26 188 1.6 3.2 0.00 0.03 0.00 85 1015.6
20260902130104 25 199 0.0 6.4 0.00 0.03 0.00 85 1015.7